Time,TemperatureF,DewpointF,PressureIn,WindDirection,WindDirectionDegrees,WindSpeedMPH,WindSpeedGustMPH,Humidity,HourlyPrecipIn,Conditions,Clouds,dailyrainin,SoftwareType,DateUTC
2013-11-21 00:02:00,23.1,20.3,30.56,WSW,248,0.0,-999.0,89,0.00,,,0.00,Wunderground v.1.15,2013-11-21 05:02:00,
2013-11-21 00:07:00,23.1,20.3,30.56,WSW,248,0.0,-999.0,89,0.00,,,0.00,Wunderground v.1.15,2013-11-21 05:07:00,
2013-11-21 00:12:00,23.1,20.3,30.56,WSW,248,0.0,-999.0,89,0.00,,,0.00,Wunderground v.1.15,2013-11-21 05:12:00,
2013-11-21 00:17:00,23.1,20.3,30.56,WSW,248,0.0,-999.0,89,0.00,,,0.00,Wunderground v.1.15,2013-11-21 05:17:00,
2013-11-21 00:22:00,23.1,20.3,30.56,WSW,248,0.0,-999.0,89,0.00,,,0.00,Wunderground v.1.15,2013-11-21 05:22:00,
2013-11-21 00:27:00,23.1,20.3,30.56,WSW,248,0.0,-999.0,89,0.00,,,0.00,Wunderground v.1.15,2013-11-21 05:27:00,
2013-11-21 00:32:00,23.1,20.3,30.56,WSW,248,0.0,-999.0,89,0.00,,,0.00,Wunderground v.1.15,2013-11-21 05:32:00,
2013-11-21 00:37:00,23.1,20.3,30.56,WSW,248,0.0,-999.0,89,0.00,,,0.00,Wunderground v.1.15,2013-11-21 05:37:00,
2013-11-21 00:42:00,23.1,20.3,30.56,WSW,248,0.0,-999.0,89,0.00,,,0.00,Wunderground v.1.15,2013-11-21 05:42:00,
2013-11-21 00:47:00,23.6,20.8,30.56,WSW,248,1.0,-999.0,89,0.00,,,0.00,Wunderground v.1.15,2013-11-21 05:47:00,
2013-11-21 00:52:00,23.6,20.8,30.56,WSW,248,1.0,-999.0,89,0.00,,,0.00,Wunderground v.1.15,2013-11-21 05:52:00,
2013-11-21 00:57:00,23.6,20.8,30.56,WSW,248,1.0,-999.0,89,0.00,,,0.00,Wunderground v.1.15,2013-11-21 05:57:00,
2013-11-21 01:02:00,23.6,20.8,30.56,WSW,248,1.0,-999.0,89,0.00,,,0.00,Wunderground v.1.15,2013-11-21 06:02:00,
2013-11-21 01:07:00,23.6,20.8,30.56,WSW,248,1.0,-999.0,89,0.00,,,0.00,Wunderground v.1.15,2013-11-21 06:07:00,
2013-11-21 01:12:00,23.6,20.8,30.56,WSW,248,1.0,-999.0,89,0.00,,,0.00,Wunderground v.1.15,2013-11-21 06:12:00,
2013-11-21 01:17:00,23.2,20.4,30.56,SW,225,0.0,-999.0,89,0.00,,,0.00,Wunderground v.1.15,2013-11-21 06:17:00,
2013-11-21 01:22:00,23.2,20.4,30.56,SW,225,0.0,-999.0,89,0.00,,,0.00,Wunderground v.1.15,2013-11-21 06:22:00,
2013-11-21 01:27:00,23.2,20.4,30.56,SW,225,0.0,-999.0,89,0.00,,,0.00,Wunderground v.1.15,2013-11-21 06:27:00,
2013-11-21 01:32:00,23.2,20.4,30.56,SW,225,0.0,-999.0,89,0.00,,,0.00,Wunderground v.1.15,2013-11-21 06:32:00,
2013-11-21 01:37:00,23.2,20.4,30.56,SW,225,0.0,-999.0,89,0.00,,,0.00,Wunderground v.1.15,2013-11-21 06:37:00,
2013-11-21 01:42:00,23.2,20.4,30.56,SW,225,0.0,-999.0,89,0.00,,,0.00,Wunderground v.1.15,2013-11-21 06:42:00,
2013-11-21 01:47:00,23.3,20.8,30.57,WSW,248,0.0,-999.0,90,0.00,,,0.00,Wunderground v.1.15,2013-11-21 06:47:00,
2013-11-21 01:52:00,23.3,20.8,30.57,WSW,248,0.0,-999.0,90,0.00,,,0.00,Wunderground v.1.15,2013-11-21 06:52:00,
2013-11-21 01:57:00,23.3,20.8,30.57,WSW,248,0.0,-999.0,90,0.00,,,0.00,Wunderground v.1.15,2013-11-21 06:57:00,
2013-11-21 02:02:00,23.3,20.8,30.57,WSW,248,0.0,-999.0,90,0.00,,,0.00,Wunderground v.1.15,2013-11-21 07:02:00,
2013-11-21 02:07:00,23.3,20.8,30.57,WSW,248,0.0,-999.0,90,0.00,,,0.00,Wunderground v.1.15,2013-11-21 07:07:00,
2013-11-21 02:12:00,23.3,20.8,30.57,WSW,248,0.0,-999.0,90,0.00,,,0.00,Wunderground v.1.15,2013-11-21 07:12:00,
2013-11-21 02:17:00,22.3,19.8,30.57,WSW,248,0.0,-999.0,90,0.00,,,0.00,Wunderground v.1.15,2013-11-21 07:17:00,
2013-11-21 02:22:00,22.3,19.8,30.57,WSW,248,0.0,-999.0,90,0.00,,,0.00,Wunderground v.1.15,2013-11-21 07:22:00,
2013-11-21 02:27:00,22.3,19.8,30.57,WSW,248,0.0,-999.0,90,0.00,,,0.00,Wunderground v.1.15,2013-11-21 07:27:00,
2013-11-21 02:32:00,22.3,19.8,30.57,WSW,248,0.0,-999.0,90,0.00,,,0.00,Wunderground v.1.15,2013-11-21 07:32:00,
2013-11-21 02:37:00,22.3,19.8,30.57,WSW,248,0.0,-999.0,90,0.00,,,0.00,Wunderground v.1.15,2013-11-21 07:37:00,
2013-11-21 02:42:00,22.3,19.8,30.57,WSW,248,0.0,-999.0,90,0.00,,,0.00,Wunderground v.1.15,2013-11-21 07:42:00,
2013-11-21 02:47:00,22.2,19.7,30.57,WSW,248,0.0,-999.0,90,0.00,,,0.00,Wunderground v.1.15,2013-11-21 07:47:00,
2013-11-21 02:52:00,22.2,19.7,30.57,WSW,248,0.0,-999.0,90,0.00,,,0.00,Wunderground v.1.15,2013-11-21 07:52:00,
2013-11-21 02:57:00,22.2,19.7,30.57,WSW,248,0.0,-999.0,90,0.00,,,0.00,Wunderground v.1.15,2013-11-21 07:57:00,
2013-11-21 03:02:00,22.2,19.7,30.57,WSW,248,0.0,-999.0,90,0.00,,,0.00,Wunderground v.1.15,2013-11-21 08:02:00,
2013-11-21 03:07:00,22.2,19.7,30.57,WSW,248,0.0,-999.0,90,0.00,,,0.00,Wunderground v.1.15,2013-11-21 08:07:00,
2013-11-21 03:12:00,22.2,19.7,30.57,WSW,248,0.0,-999.0,90,0.00,,,0.00,Wunderground v.1.15,2013-11-21 08:12:00,
2013-11-21 03:17:00,24.3,22.3,30.57,WSW,248,0.0,-999.0,92,0.00,,,0.00,Wunderground v.1.15,2013-11-21 08:17:00,
2013-11-21 03:22:00,24.3,22.3,30.57,WSW,248,0.0,-999.0,92,0.00,,,0.00,Wunderground v.1.15,2013-11-21 08:22:00,
2013-11-21 03:27:00,24.3,22.3,30.57,WSW,248,0.0,-999.0,92,0.00,,,0.00,Wunderground v.1.15,2013-11-21 08:27:00,
2013-11-21 03:32:00,24.3,22.3,30.57,WSW,248,0.0,-999.0,92,0.00,,,0.00,Wunderground v.1.15,2013-11-21 08:32:00,
2013-11-21 03:37:00,24.3,22.3,30.57,WSW,248,0.0,-999.0,92,0.00,,,0.00,Wunderground v.1.15,2013-11-21 08:37:00,
2013-11-21 03:42:00,24.3,22.3,30.57,WSW,248,0.0,-999.0,92,0.00,,,0.00,Wunderground v.1.15,2013-11-21 08:42:00,
2013-11-21 03:47:00,25.4,23.1,30.57,West,270,0.0,-999.0,91,0.00,,,0.00,Wunderground v.1.15,2013-11-21 08:47:00,
2013-11-21 03:52:00,25.4,23.1,30.57,West,270,0.0,-999.0,91,0.00,,,0.00,Wunderground v.1.15,2013-11-21 08:52:00,
2013-11-21 03:57:00,25.4,23.1,30.57,West,270,0.0,-999.0,91,0.00,,,0.00,Wunderground v.1.15,2013-11-21 08:57:00,
2013-11-21 04:02:00,25.4,23.1,30.57,West,270,0.0,-999.0,91,0.00,,,0.00,Wunderground v.1.15,2013-11-21 09:02:00,
2013-11-21 04:07:00,25.4,23.1,30.57,West,270,0.0,-999.0,91,0.00,,,0.00,Wunderground v.1.15,2013-11-21 09:07:00,
2013-11-21 04:12:00,25.4,23.1,30.57,West,270,0.0,-999.0,91,0.00,,,0.00,Wunderground v.1.15,2013-11-21 09:12:00,
2013-11-21 04:17:00,26.1,23.8,30.57,West,270,0.0,-999.0,91,0.00,,,0.00,Wunderground v.1.15,2013-11-21 09:17:00,
2013-11-21 04:22:00,26.1,23.8,30.57,West,270,0.0,-999.0,91,0.00,,,0.00,Wunderground v.1.15,2013-11-21 09:22:00,
2013-11-21 04:27:00,26.1,23.8,30.57,West,270,0.0,-999.0,91,0.00,,,0.00,Wunderground v.1.15,2013-11-21 09:27:00,
2013-11-21 04:32:00,26.1,23.8,30.57,West,270,0.0,-999.0,91,0.00,,,0.00,Wunderground v.1.15,2013-11-21 09:32:00,
2013-11-21 04:37:00,26.1,23.8,30.57,West,270,0.0,-999.0,91,0.00,,,0.00,Wunderground v.1.15,2013-11-21 09:37:00,
2013-11-21 04:42:00,26.1,23.8,30.57,West,270,0.0,-999.0,91,0.00,,,0.00,Wunderground v.1.15,2013-11-21 09:42:00,
2013-11-21 04:47:00,26.8,24.5,30.57,WSW,248,0.0,-999.0,91,0.00,,,0.00,Wunderground v.1.15,2013-11-21 09:47:00,
2013-11-21 04:52:00,26.8,24.5,30.57,WSW,248,0.0,-999.0,91,0.00,,,0.00,Wunderground v.1.15,2013-11-21 09:52:00,
2013-11-21 04:57:00,26.8,24.5,30.57,WSW,248,0.0,-999.0,91,0.00,,,0.00,Wunderground v.1.15,2013-11-21 09:57:00,
2013-11-21 05:02:00,26.8,24.5,30.57,WSW,248,0.0,-999.0,91,0.00,,,0.00,Wunderground v.1.15,2013-11-21 10:02:00,
2013-11-21 05:07:00,26.8,24.5,30.57,WSW,248,0.0,-999.0,91,0.00,,,0.00,Wunderground v.1.15,2013-11-21 10:07:00,
2013-11-21 05:12:00,26.8,24.5,30.57,WSW,248,0.0,-999.0,91,0.00,,,0.00,Wunderground v.1.15,2013-11-21 10:12:00,
2013-11-21 05:17:00,27.4,24.6,30.56,N/A,-737280,0.0,-999.0,89,0.00,,,0.00,Wunderground v.1.15,2013-11-21 10:17:00,
2013-11-21 05:22:00,27.4,24.6,30.56,N/A,-737280,0.0,-999.0,89,0.00,,,0.00,Wunderground v.1.15,2013-11-21 10:22:00,
2013-11-21 05:27:00,27.4,24.6,30.56,N/A,-737280,0.0,-999.0,89,0.00,,,0.00,Wunderground v.1.15,2013-11-21 10:27:00,
2013-11-21 05:32:00,27.4,24.6,30.56,N/A,-737280,0.0,-999.0,89,0.00,,,0.00,Wunderground v.1.15,2013-11-21 10:32:00,
2013-11-21 05:37:00,27.4,24.6,30.56,N/A,-737280,0.0,-999.0,89,0.00,,,0.00,Wunderground v.1.15,2013-11-21 10:37:00,
2013-11-21 05:42:00,27.4,24.6,30.56,N/A,-737280,0.0,-999.0,89,0.00,,,0.00,Wunderground v.1.15,2013-11-21 10:42:00,
2013-11-21 05:47:00,27.7,24.6,30.56,N/A,-737280,0.0,-999.0,88,0.00,,,0.00,Wunderground v.1.15,2013-11-21 10:47:00,
2013-11-21 05:52:00,27.7,24.6,30.56,N/A,-737280,0.0,-999.0,88,0.00,,,0.00,Wunderground v.1.15,2013-11-21 10:52:00,
2013-11-21 05:57:00,27.7,24.6,30.56,N/A,-737280,0.0,-999.0,88,0.00,,,0.00,Wunderground v.1.15,2013-11-21 10:57:00,
2013-11-21 06:02:00,27.7,24.6,30.56,N/A,-737280,0.0,-999.0,88,0.00,,,0.00,Wunderground v.1.15,2013-11-21 11:02:00,
2013-11-21 06:07:00,27.7,24.6,30.56,N/A,-737280,0.0,-999.0,88,0.00,,,0.00,Wunderground v.1.15,2013-11-21 11:07:00,
2013-11-21 06:12:00,27.7,24.6,30.56,N/A,-737280,0.0,-999.0,88,0.00,,,0.00,Wunderground v.1.15,2013-11-21 11:12:00,
2013-11-21 06:17:00,28.2,25.4,30.56,WSW,248,0.0,-999.0,89,0.00,,,0.00,Wunderground v.1.15,2013-11-21 11:17:00,
2013-11-21 06:22:00,28.2,25.4,30.56,WSW,248,0.0,-999.0,89,0.00,,,0.00,Wunderground v.1.15,2013-11-21 11:22:00,
2013-11-21 06:27:00,28.2,25.4,30.56,WSW,248,0.0,-999.0,89,0.00,,,0.00,Wunderground v.1.15,2013-11-21 11:27:00,
2013-11-21 06:32:00,28.2,25.4,30.56,WSW,248,0.0,-999.0,89,0.00,,,0.00,Wunderground v.1.15,2013-11-21 11:32:00,
2013-11-21 06:37:00,28.2,25.4,30.56,WSW,248,0.0,-999.0,89,0.00,,,0.00,Wunderground v.1.15,2013-11-21 11:37:00,
2013-11-21 06:42:00,28.2,25.4,30.56,WSW,248,0.0,-999.0,89,0.00,,,0.00,Wunderground v.1.15,2013-11-21 11:42:00,
2013-11-21 06:47:00,29.0,26.4,30.56,WSW,248,0.0,-999.0,90,0.00,,,0.00,Wunderground v.1.15,2013-11-21 11:47:00,
2013-11-21 06:52:00,29.0,26.4,30.56,WSW,248,0.0,-999.0,90,0.00,,,0.00,Wunderground v.1.15,2013-11-21 11:52:00,
2013-11-21 06:57:00,29.0,26.4,30.56,WSW,248,0.0,-999.0,90,0.00,,,0.00,Wunderground v.1.15,2013-11-21 11:57:00,
2013-11-21 07:02:00,29.0,26.4,30.56,WSW,248,0.0,-999.0,90,0.00,,,0.00,Wunderground v.1.15,2013-11-21 12:02:00,
2013-11-21 07:07:00,29.0,26.4,30.56,WSW,248,0.0,-999.0,90,0.00,,,0.00,Wunderground v.1.15,2013-11-21 12:07:00,
2013-11-21 07:12:00,29.0,26.4,30.56,WSW,248,0.0,-999.0,90,0.00,,,0.00,Wunderground v.1.15,2013-11-21 12:12:00,
2013-11-21 07:17:00,29.4,26.6,30.57,East,90,0.0,-999.0,89,0.00,,,0.00,Wunderground v.1.15,2013-11-21 12:17:00,
2013-11-21 07:22:00,29.4,26.6,30.57,East,90,0.0,-999.0,89,0.00,,,0.00,Wunderground v.1.15,2013-11-21 12:22:00,
2013-11-21 07:27:00,29.4,26.6,30.57,East,90,0.0,-999.0,89,0.00,,,0.00,Wunderground v.1.15,2013-11-21 12:27:00,
2013-11-21 07:32:00,29.4,26.6,30.57,East,90,0.0,-999.0,89,0.00,,,0.00,Wunderground v.1.15,2013-11-21 12:32:00,
2013-11-21 07:37:00,29.4,26.6,30.57,East,90,0.0,-999.0,89,0.00,,,0.00,Wunderground v.1.15,2013-11-21 12:37:00,
2013-11-21 07:42:00,29.4,26.6,30.57,East,90,0.0,-999.0,89,0.00,,,0.00,Wunderground v.1.15,2013-11-21 12:42:00,
2013-11-21 07:47:00,30.9,27.5,30.58,WSW,248,0.0,-999.0,87,0.00,,,0.00,Wunderground v.1.15,2013-11-21 12:47:00,
2013-11-21 07:52:00,30.9,27.5,30.58,WSW,248,0.0,-999.0,87,0.00,,,0.00,Wunderground v.1.15,2013-11-21 12:52:00,
2013-11-21 07:57:00,30.9,27.5,30.58,WSW,248,0.0,-999.0,87,0.00,,,0.00,Wunderground v.1.15,2013-11-21 12:57:00,
2013-11-21 08:02:00,30.9,27.5,30.58,WSW,248,0.0,-999.0,87,0.00,,,0.00,Wunderground v.1.15,2013-11-21 13:02:00,
2013-11-21 08:07:00,30.9,27.5,30.58,WSW,248,0.0,-999.0,87,0.00,,,0.00,Wunderground v.1.15,2013-11-21 13:07:00,
2013-11-21 08:12:00,30.9,27.5,30.58,WSW,248,0.0,-999.0,87,0.00,,,0.00,Wunderground v.1.15,2013-11-21 13:12:00,
2013-11-21 08:17:00,32.3,28.6,30.58,SSE,158,0.0,-999.0,86,0.00,,,0.00,Wunderground v.1.15,2013-11-21 13:17:00,
2013-11-21 08:22:00,32.3,28.6,30.58,SSE,158,0.0,-999.0,86,0.00,,,0.00,Wunderground v.1.15,2013-11-21 13:22:00,
2013-11-21 08:27:00,32.3,28.6,30.58,SSE,158,0.0,-999.0,86,0.00,,,0.00,Wunderground v.1.15,2013-11-21 13:27:00,
2013-11-21 08:32:00,32.3,28.6,30.58,SSE,158,0.0,-999.0,86,0.00,,,0.00,Wunderground v.1.15,2013-11-21 13:32:00,
2013-11-21 08:37:00,32.3,28.6,30.58,SSE,158,0.0,-999.0,86,0.00,,,0.00,Wunderground v.1.15,2013-11-21 13:37:00,
2013-11-21 08:42:00,32.3,28.6,30.58,SSE,158,0.0,-999.0,86,0.00,,,0.00,Wunderground v.1.15,2013-11-21 13:42:00,
2013-11-21 08:47:00,35.7,29.5,30.58,ESE,113,0.0,-999.0,78,0.00,,,0.00,Wunderground v.1.15,2013-11-21 13:47:00,
2013-11-21 08:52:00,35.7,29.5,30.58,ESE,113,0.0,-999.0,78,0.00,,,0.00,Wunderground v.1.15,2013-11-21 13:52:00,
2013-11-21 08:57:00,35.7,29.5,30.58,ESE,113,0.0,-999.0,78,0.00,,,0.00,Wunderground v.1.15,2013-11-21 13:57:00,
2013-11-21 09:02:00,35.7,29.5,30.58,ESE,113,0.0,-999.0,78,0.00,,,0.00,Wunderground v.1.15,2013-11-21 14:02:00,
2013-11-21 09:07:00,35.7,29.5,30.58,ESE,113,0.0,-999.0,78,0.00,,,0.00,Wunderground v.1.15,2013-11-21 14:07:00,
2013-11-21 09:12:00,35.7,29.5,30.58,ESE,113,0.0,-999.0,78,0.00,,,0.00,Wunderground v.1.15,2013-11-21 14:12:00,
2013-11-21 09:17:00,38.8,30.2,30.57,West,270,0.0,-999.0,71,0.00,,,0.00,Wunderground v.1.15,2013-11-21 14:17:00,
2013-11-21 09:22:00,38.8,30.2,30.57,West,270,0.0,-999.0,71,0.00,,,0.00,Wunderground v.1.15,2013-11-21 14:22:00,
2013-11-21 09:27:00,38.8,30.2,30.57,West,270,0.0,-999.0,71,0.00,,,0.00,Wunderground v.1.15,2013-11-21 14:27:00,
2013-11-21 09:32:00,38.8,30.2,30.57,West,270,0.0,-999.0,71,0.00,,,0.00,Wunderground v.1.15,2013-11-21 14:32:00,
2013-11-21 09:37:00,38.8,30.2,30.57,West,270,0.0,-999.0,71,0.00,,,0.00,Wunderground v.1.15,2013-11-21 14:37:00,
2013-11-21 09:42:00,38.8,30.2,30.57,West,270,0.0,-999.0,71,0.00,,,0.00,Wunderground v.1.15,2013-11-21 14:42:00,
2013-11-21 09:47:00,39.6,31.3,30.56,NE,45,1.0,-999.0,72,0.00,,,0.00,Wunderground v.1.15,2013-11-21 14:47:00,
2013-11-21 09:52:00,39.6,31.3,30.56,NE,45,1.0,-999.0,72,0.00,,,0.00,Wunderground v.1.15,2013-11-21 14:52:00,
2013-11-21 09:57:00,39.6,31.3,30.56,NE,45,1.0,-999.0,72,0.00,,,0.00,Wunderground v.1.15,2013-11-21 14:57:00,
2013-11-21 10:02:00,39.6,31.3,30.56,NE,45,1.0,-999.0,72,0.00,,,0.00,Wunderground v.1.15,2013-11-21 15:02:00,
2013-11-21 10:07:00,39.6,31.3,30.56,NE,45,1.0,-999.0,72,0.00,,,0.00,Wunderground v.1.15,2013-11-21 15:07:00,
2013-11-21 10:12:00,39.6,31.3,30.56,NE,45,1.0,-999.0,72,0.00,,,0.00,Wunderground v.1.15,2013-11-21 15:12:00,
2013-11-21 10:17:00,41.0,32.7,30.56,NNW,338,1.0,-999.0,72,0.00,,,0.00,Wunderground v.1.15,2013-11-21 15:17:00,
2013-11-21 10:22:00,41.0,32.7,30.56,NNW,338,1.0,-999.0,72,0.00,,,0.00,Wunderground v.1.15,2013-11-21 15:22:00,
2013-11-21 10:27:00,41.0,32.7,30.56,NNW,338,1.0,-999.0,72,0.00,,,0.00,Wunderground v.1.15,2013-11-21 15:27:00,
2013-11-21 10:32:00,41.0,32.7,30.56,NNW,338,1.0,-999.0,72,0.00,,,0.00,Wunderground v.1.15,2013-11-21 15:32:00,
2013-11-21 10:37:00,41.0,32.7,30.56,NNW,338,1.0,-999.0,72,0.00,,,0.00,Wunderground v.1.15,2013-11-21 15:37:00,
2013-11-21 10:42:00,41.0,32.7,30.56,NNW,338,1.0,-999.0,72,0.00,,,0.00,Wunderground v.1.15,2013-11-21 15:42:00,
2013-11-21 10:47:00,42.6,33.5,30.54,NNE,23,1.0,-999.0,70,0.00,,,0.00,Wunderground v.1.15,2013-11-21 15:47:00,
2013-11-21 10:52:00,42.6,33.5,30.54,NNE,23,1.0,-999.0,70,0.00,,,0.00,Wunderground v.1.15,2013-11-21 15:52:00,
2013-11-21 10:57:00,42.6,33.5,30.54,NNE,23,1.0,-999.0,70,0.00,,,0.00,Wunderground v.1.15,2013-11-21 15:57:00,
2013-11-21 11:02:00,42.6,33.5,30.54,NNE,23,1.0,-999.0,70,0.00,,,0.00,Wunderground v.1.15,2013-11-21 16:02:00,
2013-11-21 11:07:00,42.6,33.5,30.54,NNE,23,1.0,-999.0,70,0.00,,,0.00,Wunderground v.1.15,2013-11-21 16:07:00,
2013-11-21 11:12:00,42.6,33.5,30.54,NNE,23,1.0,-999.0,70,0.00,,,0.00,Wunderground v.1.15,2013-11-21 16:12:00,
2013-11-21 11:17:00,44.6,35.4,30.53,ENE,68,1.0,-999.0,70,0.00,,,0.00,Wunderground v.1.15,2013-11-21 16:17:00,
2013-11-21 11:22:00,44.6,35.4,30.53,ENE,68,1.0,-999.0,70,0.00,,,0.00,Wunderground v.1.15,2013-11-21 16:22:00,
2013-11-21 11:27:00,44.6,35.4,30.53,ENE,68,1.0,-999.0,70,0.00,,,0.00,Wunderground v.1.15,2013-11-21 16:27:00,
2013-11-21 11:32:00,44.6,35.4,30.53,ENE,68,1.0,-999.0,70,0.00,,,0.00,Wunderground v.1.15,2013-11-21 16:32:00,
2013-11-21 11:37:00,44.6,35.4,30.53,ENE,68,1.0,-999.0,70,0.00,,,0.00,Wunderground v.1.15,2013-11-21 16:37:00,
2013-11-21 11:42:00,44.6,35.4,30.53,ENE,68,1.0,-999.0,70,0.00,,,0.00,Wunderground v.1.15,2013-11-21 16:42:00,
2013-11-21 11:47:00,45.7,36.5,30.51,ESE,113,2.0,-999.0,70,0.00,,,0.00,Wunderground v.1.15,2013-11-21 16:47:00,
2013-11-21 11:52:00,45.7,36.5,30.51,ESE,113,2.0,-999.0,70,0.00,,,0.00,Wunderground v.1.15,2013-11-21 16:52:00,
2013-11-21 11:57:00,45.7,36.5,30.51,ESE,113,2.0,-999.0,70,0.00,,,0.00,Wunderground v.1.15,2013-11-21 16:57:00,
2013-11-21 12:02:00,45.7,36.5,30.51,ESE,113,2.0,-999.0,70,0.00,,,0.00,Wunderground v.1.15,2013-11-21 17:02:00,
2013-11-21 12:07:00,45.7,36.5,30.51,ESE,113,2.0,-999.0,70,0.00,,,0.00,Wunderground v.1.15,2013-11-21 17:07:00,
2013-11-21 12:12:00,45.7,36.5,30.51,ESE,113,2.0,-999.0,70,0.00,,,0.00,Wunderground v.1.15,2013-11-21 17:12:00,
2013-11-21 12:17:00,47.1,37.4,30.50,SE,135,2.0,-999.0,69,0.00,,,0.00,Wunderground v.1.15,2013-11-21 17:17:00,
2013-11-21 12:22:00,47.1,37.4,30.50,SE,135,2.0,-999.0,69,0.00,,,0.00,Wunderground v.1.15,2013-11-21 17:22:00,
2013-11-21 12:27:00,47.1,37.4,30.50,SE,135,2.0,-999.0,69,0.00,,,0.00,Wunderground v.1.15,2013-11-21 17:27:00,
2013-11-21 12:32:00,47.1,37.4,30.50,SE,135,2.0,-999.0,69,0.00,,,0.00,Wunderground v.1.15,2013-11-21 17:32:00,
2013-11-21 12:37:00,47.1,37.4,30.50,SE,135,2.0,-999.0,69,0.00,,,0.00,Wunderground v.1.15,2013-11-21 17:37:00,
2013-11-21 12:42:00,47.1,37.4,30.50,SE,135,2.0,-999.0,69,0.00,,,0.00,Wunderground v.1.15,2013-11-21 17:42:00,
2013-11-21 12:47:00,48.4,38.7,30.49,SE,135,1.0,-999.0,69,0.00,,,0.00,Wunderground v.1.15,2013-11-21 17:47:00,
2013-11-21 12:52:00,48.4,38.7,30.49,SE,135,1.0,-999.0,69,0.00,,,0.00,Wunderground v.1.15,2013-11-21 17:52:00,
2013-11-21 12:57:00,48.4,38.7,30.49,SE,135,1.0,-999.0,69,0.00,,,0.00,Wunderground v.1.15,2013-11-21 17:57:00,
2013-11-21 13:02:00,48.4,38.7,30.49,SE,135,1.0,-999.0,69,0.00,,,0.00,Wunderground v.1.15,2013-11-21 18:02:00,
2013-11-21 13:07:00,48.4,38.7,30.49,SE,135,1.0,-999.0,69,0.00,,,0.00,Wunderground v.1.15,2013-11-21 18:07:00,
2013-11-21 13:12:00,48.4,38.7,30.49,SE,135,1.0,-999.0,69,0.00,,,0.00,Wunderground v.1.15,2013-11-21 18:12:00,
2013-11-21 13:17:00,51.0,41.2,30.47,SSW,203,4.0,-999.0,69,0.00,,,0.00,Wunderground v.1.15,2013-11-21 18:17:00,
2013-11-21 13:22:00,51.0,41.2,30.47,SSW,203,4.0,-999.0,69,0.00,,,0.00,Wunderground v.1.15,2013-11-21 18:22:00,
2013-11-21 13:27:00,51.0,41.2,30.47,SSW,203,4.0,-999.0,69,0.00,,,0.00,Wunderground v.1.15,2013-11-21 18:27:00,
2013-11-21 13:32:00,51.0,41.2,30.47,SSW,203,4.0,-999.0,69,0.00,,,0.00,Wunderground v.1.15,2013-11-21 18:32:00,
2013-11-21 13:37:00,51.0,41.2,30.47,SSW,203,4.0,-999.0,69,0.00,,,0.00,Wunderground v.1.15,2013-11-21 18:37:00,
2013-11-21 13:42:00,51.0,41.2,30.47,SSW,203,4.0,-999.0,69,0.00,,,0.00,Wunderground v.1.15,2013-11-21 18:42:00,
2013-11-21 13:47:00,50.9,41.5,30.45,SSW,203,5.0,-999.0,70,0.00,,,0.00,Wunderground v.1.15,2013-11-21 18:47:00,
2013-11-21 13:52:00,50.9,41.5,30.45,SSW,203,5.0,-999.0,70,0.00,,,0.00,Wunderground v.1.15,2013-11-21 18:52:00,
2013-11-21 13:57:00,50.9,41.5,30.45,SSW,203,5.0,-999.0,70,0.00,,,0.00,Wunderground v.1.15,2013-11-21 18:57:00,
2013-11-21 14:02:00,50.9,41.5,30.45,SSW,203,5.0,-999.0,70,0.00,,,0.00,Wunderground v.1.15,2013-11-21 19:02:00,
2013-11-21 14:07:00,50.9,41.5,30.45,SSW,203,5.0,-999.0,70,0.00,,,0.00,Wunderground v.1.15,2013-11-21 19:07:00,
2013-11-21 14:12:00,50.9,41.5,30.45,SSW,203,5.0,-999.0,70,0.00,,,0.00,Wunderground v.1.15,2013-11-21 19:12:00,
2013-11-21 14:17:00,51.5,42.0,30.44,SSW,203,4.0,-999.0,70,0.00,,,0.00,Wunderground v.1.15,2013-11-21 19:17:00,
2013-11-21 14:22:00,51.5,42.0,30.44,SSW,203,4.0,-999.0,70,0.00,,,0.00,Wunderground v.1.15,2013-11-21 19:22:00,
2013-11-21 14:27:00,51.5,42.0,30.44,SSW,203,4.0,-999.0,70,0.00,,,0.00,Wunderground v.1.15,2013-11-21 19:27:00,
2013-11-21 14:32:00,51.5,42.0,30.44,SSW,203,4.0,-999.0,70,0.00,,,0.00,Wunderground v.1.15,2013-11-21 19:32:00,
2013-11-21 14:37:00,51.5,42.0,30.44,SSW,203,4.0,-999.0,70,0.00,,,0.00,Wunderground v.1.15,2013-11-21 19:37:00,
2013-11-21 14:42:00,51.5,42.0,30.44,SSW,203,4.0,-999.0,70,0.00,,,0.00,Wunderground v.1.15,2013-11-21 19:42:00,
2013-11-21 14:47:00,51.0,41.6,30.43,SSW,203,5.0,-999.0,70,0.00,,,0.00,Wunderground v.1.15,2013-11-21 19:47:00,
2013-11-21 14:52:00,51.0,41.6,30.43,SSW,203,5.0,-999.0,70,0.00,,,0.00,Wunderground v.1.15,2013-11-21 19:52:00,
2013-11-21 14:57:00,51.0,41.6,30.43,SSW,203,5.0,-999.0,70,0.00,,,0.00,Wunderground v.1.15,2013-11-21 19:57:00,
2013-11-21 15:02:00,51.0,41.6,30.43,SSW,203,5.0,-999.0,70,0.00,,,0.00,Wunderground v.1.15,2013-11-21 20:02:00,
2013-11-21 15:07:00,51.0,41.6,30.43,SSW,203,5.0,-999.0,70,0.00,,,0.00,Wunderground v.1.15,2013-11-21 20:07:00,
2013-11-21 15:12:00,51.0,41.6,30.43,SSW,203,5.0,-999.0,70,0.00,,,0.00,Wunderground v.1.15,2013-11-21 20:12:00,
2013-11-21 15:17:00,50.7,41.6,30.42,SSW,203,5.0,-999.0,71,0.00,,,0.00,Wunderground v.1.15,2013-11-21 20:17:00,
2013-11-21 15:22:00,50.7,41.6,30.42,SSW,203,5.0,-999.0,71,0.00,,,0.00,Wunderground v.1.15,2013-11-21 20:22:00,
2013-11-21 15:27:00,50.7,41.6,30.42,SSW,203,5.0,-999.0,71,0.00,,,0.00,Wunderground v.1.15,2013-11-21 20:27:00,
2013-11-21 15:32:00,50.7,41.6,30.42,SSW,203,5.0,-999.0,71,0.00,,,0.00,Wunderground v.1.15,2013-11-21 20:32:00,
2013-11-21 15:37:00,50.7,41.6,30.42,SSW,203,5.0,-999.0,71,0.00,,,0.00,Wunderground v.1.15,2013-11-21 20:37:00,
2013-11-21 15:42:00,50.7,41.6,30.42,SSW,203,5.0,-999.0,71,0.00,,,0.00,Wunderground v.1.15,2013-11-21 20:42:00,
2013-11-21 15:47:00,50.3,41.6,30.42,SSW,203,5.0,-999.0,72,0.00,,,0.00,Wunderground v.1.15,2013-11-21 20:47:00,
2013-11-21 15:52:00,50.3,41.6,30.42,SSW,203,5.0,-999.0,72,0.00,,,0.00,Wunderground v.1.15,2013-11-21 20:52:00,
2013-11-21 15:57:00,50.3,41.6,30.42,SSW,203,5.0,-999.0,72,0.00,,,0.00,Wunderground v.1.15,2013-11-21 20:57:00,
2013-11-21 16:02:00,50.3,41.6,30.42,SSW,203,5.0,-999.0,72,0.00,,,0.00,Wunderground v.1.15,2013-11-21 21:02:00,
2013-11-21 16:07:00,50.3,41.6,30.42,SSW,203,5.0,-999.0,72,0.00,,,0.00,Wunderground v.1.15,2013-11-21 21:07:00,
2013-11-21 16:12:00,50.3,41.6,30.42,SSW,203,5.0,-999.0,72,0.00,,,0.00,Wunderground v.1.15,2013-11-21 21:12:00,
2013-11-21 16:17:00,49.8,41.5,30.42,SSW,203,2.0,-999.0,73,0.00,,,0.00,Wunderground v.1.15,2013-11-21 21:17:00,
2013-11-21 16:22:00,49.8,41.5,30.42,SSW,203,2.0,-999.0,73,0.00,,,0.00,Wunderground v.1.15,2013-11-21 21:22:00,
2013-11-21 16:27:00,49.8,41.5,30.42,SSW,203,2.0,-999.0,73,0.00,,,0.00,Wunderground v.1.15,2013-11-21 21:27:00,
2013-11-21 16:32:00,49.8,41.5,30.42,SSW,203,2.0,-999.0,73,0.00,,,0.00,Wunderground v.1.15,2013-11-21 21:32:00,
2013-11-21 16:37:00,49.8,41.5,30.42,SSW,203,2.0,-999.0,73,0.00,,,0.00,Wunderground v.1.15,2013-11-21 21:37:00,
2013-11-21 16:42:00,49.8,41.5,30.42,SSW,203,2.0,-999.0,73,0.00,,,0.00,Wunderground v.1.15,2013-11-21 21:42:00,
2013-11-21 16:47:00,48.9,41.0,30.43,WSW,248,2.0,-999.0,74,0.00,,,0.00,Wunderground v.1.15,2013-11-21 21:47:00,
2013-11-21 16:52:00,48.9,41.0,30.43,WSW,248,2.0,-999.0,74,0.00,,,0.00,Wunderground v.1.15,2013-11-21 21:52:00,
2013-11-21 16:57:00,48.9,41.0,30.43,WSW,248,2.0,-999.0,74,0.00,,,0.00,Wunderground v.1.15,2013-11-21 21:57:00,
2013-11-21 17:02:00,48.9,41.0,30.43,WSW,248,2.0,-999.0,74,0.00,,,0.00,Wunderground v.1.15,2013-11-21 22:02:00,
2013-11-21 17:07:00,48.9,41.0,30.43,WSW,248,2.0,-999.0,74,0.00,,,0.00,Wunderground v.1.15,2013-11-21 22:07:00,
2013-11-21 17:12:00,48.9,41.0,30.43,WSW,248,2.0,-999.0,74,0.00,,,0.00,Wunderground v.1.15,2013-11-21 22:12:00,
2013-11-21 17:17:00,47.0,39.8,30.43,WSW,248,1.0,-999.0,76,0.00,,,0.00,Wunderground v.1.15,2013-11-21 22:17:00,
2013-11-21 17:22:00,47.0,39.8,30.43,WSW,248,1.0,-999.0,76,0.00,,,0.00,Wunderground v.1.15,2013-11-21 22:22:00,
2013-11-21 17:27:00,47.0,39.8,30.43,WSW,248,1.0,-999.0,76,0.00,,,0.00,Wunderground v.1.15,2013-11-21 22:27:00,
2013-11-21 17:32:00,47.0,39.8,30.43,WSW,248,1.0,-999.0,76,0.00,,,0.00,Wunderground v.1.15,2013-11-21 22:32:00,
2013-11-21 17:37:00,47.0,39.8,30.43,WSW,248,1.0,-999.0,76,0.00,,,0.00,Wunderground v.1.15,2013-11-21 22:37:00,
2013-11-21 17:42:00,47.0,39.8,30.43,WSW,248,1.0,-999.0,76,0.00,,,0.00,Wunderground v.1.15,2013-11-21 22:42:00,
2013-11-21 17:47:00,44.4,38.3,30.44,WSW,248,0.0,-999.0,79,0.00,,,0.00,Wunderground v.1.15,2013-11-21 22:47:00,
2013-11-21 17:52:00,44.4,38.3,30.44,WSW,248,0.0,-999.0,79,0.00,,,0.00,Wunderground v.1.15,2013-11-21 22:52:00,
2013-11-21 17:57:00,44.4,38.3,30.44,WSW,248,0.0,-999.0,79,0.00,,,0.00,Wunderground v.1.15,2013-11-21 22:57:00,
2013-11-21 18:02:00,44.4,38.3,30.44,WSW,248,0.0,-999.0,79,0.00,,,0.00,Wunderground v.1.15,2013-11-21 23:02:00,
2013-11-21 18:07:00,44.4,38.3,30.44,WSW,248,0.0,-999.0,79,0.00,,,0.00,Wunderground v.1.15,2013-11-21 23:07:00,
2013-11-21 18:12:00,44.4,38.3,30.44,WSW,248,0.0,-999.0,79,0.00,,,0.00,Wunderground v.1.15,2013-11-21 23:12:00,
2013-11-21 18:17:00,42.7,37.6,30.44,West,270,0.0,-999.0,82,0.00,,,0.00,Wunderground v.1.15,2013-11-21 23:17:00,
2013-11-21 18:22:00,42.7,37.6,30.44,West,270,0.0,-999.0,82,0.00,,,0.00,Wunderground v.1.15,2013-11-21 23:22:00,
2013-11-21 18:27:00,42.7,37.6,30.44,West,270,0.0,-999.0,82,0.00,,,0.00,Wunderground v.1.15,2013-11-21 23:27:00,
2013-11-21 18:32:00,42.7,37.6,30.44,West,270,0.0,-999.0,82,0.00,,,0.00,Wunderground v.1.15,2013-11-21 23:32:00,
2013-11-21 18:37:00,42.7,37.6,30.44,West,270,0.0,-999.0,82,0.00,,,0.00,Wunderground v.1.15,2013-11-21 23:37:00,
2013-11-21 18:42:00,42.7,37.6,30.44,West,270,0.0,-999.0,82,0.00,,,0.00,Wunderground v.1.15,2013-11-21 23:42:00,
2013-11-21 18:47:00,41.2,36.7,30.43,West,270,0.0,-999.0,84,0.00,,,0.00,Wunderground v.1.15,2013-11-21 23:47:00,
2013-11-21 18:52:00,41.2,36.7,30.43,West,270,0.0,-999.0,84,0.00,,,0.00,Wunderground v.1.15,2013-11-21 23:52:00,
2013-11-21 18:57:00,41.2,36.7,30.43,West,270,0.0,-999.0,84,0.00,,,0.00,Wunderground v.1.15,2013-11-21 23:57:00,
2013-11-21 19:02:00,41.2,36.7,30.43,West,270,0.0,-999.0,84,0.00,,,0.00,Wunderground v.1.15,2013-11-22 00:02:00,
2013-11-21 19:07:00,41.2,36.7,30.43,West,270,0.0,-999.0,84,0.00,,,0.00,Wunderground v.1.15,2013-11-22 00:07:00,
2013-11-21 19:12:00,41.2,36.7,30.43,West,270,0.0,-999.0,84,0.00,,,0.00,Wunderground v.1.15,2013-11-22 00:12:00,
2013-11-21 19:17:00,41.6,37.7,30.43,West,270,1.0,-999.0,86,0.00,,,0.00,Wunderground v.1.15,2013-11-22 00:17:00,
2013-11-21 19:22:00,41.6,37.7,30.43,West,270,1.0,-999.0,86,0.00,,,0.00,Wunderground v.1.15,2013-11-22 00:22:00,
2013-11-21 19:27:00,41.6,37.7,30.43,West,270,1.0,-999.0,86,0.00,,,0.00,Wunderground v.1.15,2013-11-22 00:27:00,
2013-11-21 19:32:00,41.6,37.7,30.43,West,270,1.0,-999.0,86,0.00,,,0.00,Wunderground v.1.15,2013-11-22 00:32:00,
2013-11-21 19:37:00,41.6,37.7,30.43,West,270,1.0,-999.0,86,0.00,,,0.00,Wunderground v.1.15,2013-11-22 00:37:00,
2013-11-21 19:42:00,41.6,37.7,30.43,West,270,1.0,-999.0,86,0.00,,,0.00,Wunderground v.1.15,2013-11-22 00:42:00,
2013-11-21 19:47:00,42.0,38.1,30.42,West,270,0.0,-999.0,86,0.00,,,0.00,Wunderground v.1.15,2013-11-22 00:47:00,
2013-11-21 19:52:00,42.0,38.1,30.42,West,270,0.0,-999.0,86,0.00,,,0.00,Wunderground v.1.15,2013-11-22 00:52:00,
2013-11-21 19:57:00,42.0,38.1,30.42,West,270,0.0,-999.0,86,0.00,,,0.00,Wunderground v.1.15,2013-11-22 00:57:00,
2013-11-21 20:02:00,42.0,38.1,30.42,West,270,0.0,-999.0,86,0.00,,,0.00,Wunderground v.1.15,2013-11-22 01:02:00,
2013-11-21 20:07:00,42.0,38.1,30.42,West,270,0.0,-999.0,86,0.00,,,0.00,Wunderground v.1.15,2013-11-22 01:07:00,
2013-11-21 20:12:00,42.0,38.1,30.42,West,270,0.0,-999.0,86,0.00,,,0.00,Wunderground v.1.15,2013-11-22 01:12:00,
2013-11-21 20:17:00,41.3,37.7,30.42,West,270,1.0,-999.0,87,0.00,,,0.00,Wunderground v.1.15,2013-11-22 01:17:00,
2013-11-21 20:22:00,41.3,37.7,30.42,West,270,1.0,-999.0,87,0.00,,,0.00,Wunderground v.1.15,2013-11-22 01:22:00,
2013-11-21 20:27:00,41.3,37.7,30.42,West,270,1.0,-999.0,87,0.00,,,0.00,Wunderground v.1.15,2013-11-22 01:27:00,
2013-11-21 20:32:00,41.3,37.7,30.42,West,270,1.0,-999.0,87,0.00,,,0.00,Wunderground v.1.15,2013-11-22 01:32:00,
2013-11-21 20:37:00,41.3,37.7,30.42,West,270,1.0,-999.0,87,0.00,,,0.00,Wunderground v.1.15,2013-11-22 01:37:00,
2013-11-21 20:42:00,41.3,37.7,30.42,West,270,1.0,-999.0,87,0.00,,,0.00,Wunderground v.1.15,2013-11-22 01:42:00,
2013-11-21 20:47:00,40.5,36.9,30.42,West,270,1.0,-999.0,87,0.00,,,0.00,Wunderground v.1.15,2013-11-22 01:47:00,
2013-11-21 20:52:00,40.5,36.9,30.42,West,270,1.0,-999.0,87,0.00,,,0.00,Wunderground v.1.15,2013-11-22 01:52:00,
2013-11-21 20:57:00,40.5,36.9,30.42,West,270,1.0,-999.0,87,0.00,,,0.00,Wunderground v.1.15,2013-11-22 01:57:00,
2013-11-21 21:02:00,40.5,36.9,30.42,West,270,1.0,-999.0,87,0.00,,,0.00,Wunderground v.1.15,2013-11-22 02:02:00,
2013-11-21 21:07:00,40.5,36.9,30.42,West,270,1.0,-999.0,87,0.00,,,0.00,Wunderground v.1.15,2013-11-22 02:07:00,
2013-11-21 21:12:00,40.5,36.9,30.42,West,270,1.0,-999.0,87,0.00,,,0.00,Wunderground v.1.15,2013-11-22 02:12:00,
2013-11-21 21:17:00,41.4,38.1,30.42,West,270,0.0,-999.0,88,0.00,,,0.00,Wunderground v.1.15,2013-11-22 02:17:00,
2013-11-21 21:22:00,41.4,38.1,30.42,West,270,0.0,-999.0,88,0.00,,,0.00,Wunderground v.1.15,2013-11-22 02:22:00,
2013-11-21 21:27:00,41.4,38.1,30.42,West,270,0.0,-999.0,88,0.00,,,0.00,Wunderground v.1.15,2013-11-22 02:27:00,
2013-11-21 21:32:00,41.4,38.1,30.42,West,270,0.0,-999.0,88,0.00,,,0.00,Wunderground v.1.15,2013-11-22 02:32:00,
2013-11-21 21:37:00,41.4,38.1,30.42,West,270,0.0,-999.0,88,0.00,,,0.00,Wunderground v.1.15,2013-11-22 02:37:00,
2013-11-21 21:42:00,41.4,38.1,30.42,West,270,0.0,-999.0,88,0.00,,,0.00,Wunderground v.1.15,2013-11-22 02:42:00,
2013-11-21 21:47:00,41.9,38.6,30.41,West,270,0.0,-999.0,88,0.00,,,0.00,Wunderground v.1.15,2013-11-22 02:47:00,
2013-11-21 21:52:00,41.9,38.6,30.41,West,270,0.0,-999.0,88,0.00,,,0.00,Wunderground v.1.15,2013-11-22 02:52:00,
2013-11-21 21:57:00,41.9,38.6,30.41,West,270,0.0,-999.0,88,0.00,,,0.00,Wunderground v.1.15,2013-11-22 02:57:00,
2013-11-21 22:02:00,41.9,38.6,30.41,West,270,0.0,-999.0,88,0.00,,,0.00,Wunderground v.1.15,2013-11-22 03:02:00,
2013-11-21 22:07:00,41.9,38.6,30.41,West,270,0.0,-999.0,88,0.00,,,0.00,Wunderground v.1.15,2013-11-22 03:07:00,
2013-11-21 22:12:00,41.9,38.6,30.41,West,270,0.0,-999.0,88,0.00,,,0.00,Wunderground v.1.15,2013-11-22 03:12:00,
2013-11-21 22:17:00,41.9,38.3,30.41,West,270,1.0,-999.0,87,0.00,,,0.00,Wunderground v.1.15,2013-11-22 03:17:00,
2013-11-21 22:22:00,41.9,38.3,30.41,West,270,1.0,-999.0,87,0.00,,,0.00,Wunderground v.1.15,2013-11-22 03:22:00,
2013-11-21 22:27:00,41.9,38.3,30.41,West,270,1.0,-999.0,87,0.00,,,0.00,Wunderground v.1.15,2013-11-22 03:27:00,
2013-11-21 22:32:00,41.9,38.3,30.41,West,270,1.0,-999.0,87,0.00,,,0.00,Wunderground v.1.15,2013-11-22 03:32:00,
2013-11-21 22:37:00,41.9,38.3,30.41,West,270,1.0,-999.0,87,0.00,,,0.00,Wunderground v.1.15,2013-11-22 03:37:00,
2013-11-21 22:42:00,41.9,38.3,30.41,West,270,1.0,-999.0,87,0.00,,,0.00,Wunderground v.1.15,2013-11-22 03:42:00,
2013-11-21 22:47:00,41.5,38.2,30.40,West,270,0.0,-999.0,88,0.00,,,0.00,Wunderground v.1.15,2013-11-22 03:47:00,
2013-11-21 22:52:00,41.5,38.2,30.40,West,270,0.0,-999.0,88,0.00,,,0.00,Wunderground v.1.15,2013-11-22 03:52:00,
2013-11-21 22:57:00,41.5,38.2,30.40,West,270,0.0,-999.0,88,0.00,,,0.00,Wunderground v.1.15,2013-11-22 03:57:00,
2013-11-21 23:02:00,41.5,38.2,30.40,West,270,0.0,-999.0,88,0.00,,,0.00,Wunderground v.1.15,2013-11-22 04:02:00,
2013-11-21 23:07:00,41.5,38.2,30.40,West,270,0.0,-999.0,88,0.00,,,0.00,Wunderground v.1.15,2013-11-22 04:07:00,
2013-11-21 23:12:00,41.5,38.2,30.40,West,270,0.0,-999.0,88,0.00,,,0.00,Wunderground v.1.15,2013-11-22 04:12:00,
2013-11-21 23:17:00,41.5,38.5,30.38,West,270,0.0,-999.0,89,0.00,,,0.00,Wunderground v.1.15,2013-11-22 04:17:00,
2013-11-21 23:22:00,41.5,38.5,30.38,West,270,0.0,-999.0,89,0.00,,,0.00,Wunderground v.1.15,2013-11-22 04:22:00,
2013-11-21 23:27:00,41.5,38.5,30.38,West,270,0.0,-999.0,89,0.00,,,0.00,Wunderground v.1.15,2013-11-22 04:27:00,
2013-11-21 23:32:00,41.5,38.5,30.38,West,270,0.0,-999.0,89,0.00,,,0.00,Wunderground v.1.15,2013-11-22 04:32:00,
2013-11-21 23:37:00,41.5,38.5,30.38,West,270,0.0,-999.0,89,0.00,,,0.00,Wunderground v.1.15,2013-11-22 04:37:00,
2013-11-21 23:42:00,41.5,38.5,30.38,West,270,0.0,-999.0,89,0.00,,,0.00,Wunderground v.1.15,2013-11-22 04:42:00,
2013-11-21 23:47:00,46.2,42.2,30.39,WSW,248,2.0,-999.0,86,0.00,,,0.00,Wunderground v.1.15,2013-11-22 04:47:00,
2013-11-21 23:52:00,46.2,42.2,30.39,WSW,248,2.0,-999.0,86,0.00,,,0.00,Wunderground v.1.15,2013-11-22 04:52:00,
2013-11-21 23:57:00,46.2,42.2,30.39,WSW,248,2.0,-999.0,86,0.00,,,0.00,Wunderground v.1.15,2013-11-22 04:57:00,